Location: Hall+in+Tirol
(47.2830°N, 11.5170°E)
Time: 15:09:05
(UTC+02:00)

Gurwin Techsat 1B - Visible Passes

Search period start: 03 August 2015 00:00
Search period end: 13 August 2015 00:00
Orbit: 812 x 814 km, 98.5° (Epoch: 01 August)

Date Brightness Start Highest point End Pass type
(mag) Time Alt. Az. Time Alt. Az. Time Alt. Az.
03 Aug 9.0 03:36:00 10° NNE 03:41:17 62° E 03:44:48 21° S visible
03 Aug 10.1 05:16:47 10° N 05:20:53 22° WNW 05:24:52 10° WSW visible
04 Aug 9.6 03:13:27 10° NNE 03:18:26 40° E 03:21:43 20° SSE visible
04 Aug 9.6 04:53:37 10° N 04:58:21 33° WNW 05:02:56 10° SW visible
05 Aug 10.3 02:51:06 10° NE 02:55:29 26° E 02:58:37 16° SE visible
05 Aug 9.0 04:30:37 10° N 04:35:44 49° WNW 04:39:50 16° SW visible
06 Aug 10.8 02:29:07 10° NE 02:32:26 17° E 02:35:32 11° SE visible
06 Aug 8.6 04:07:44 10° N 04:13:04 74° WNW 04:16:44 20° SSW visible
07 Aug 11.2 02:08:32 10° ENE 02:09:16 10° E 02:10:21 10° E visible
07 Aug 8.7 03:44:58 10° NNE 03:50:19 74° ESE 03:53:39 24° S visible
08 Aug 9.3 03:22:22 10° NNE 03:27:30 48° E 03:30:33 23° SSE visible
08 Aug 9.8 05:02:46 10° N 05:07:17 28° WNW 05:11:41 10° WSW visible
09 Aug 10.0 02:59:55 10° NNE 03:04:35 31° E 03:07:27 19° SE visible
09 Aug 9.2 04:39:43 10° N 04:44:42 41° WNW 04:48:40 15° SW visible
10 Aug 10.6 02:37:45 10° NE 02:41:34 20° E 02:44:22 14° SE visible
10 Aug 8.7 04:16:47 10° N 04:22:03 62° WNW 04:25:34 21° SW visible
11 Aug 11.0 02:16:14 10° ENE 02:18:27 13° E 02:20:57 10° ESE visible
11 Aug 8.6 03:53:59 10° NNE 03:59:21 87° ESE 04:02:28 26° SSW visible
12 Aug 9.1 03:31:18 10° NNE 03:36:33 57° E 03:39:22 27° S visible
12 Aug 10.0 05:11:58 10° N 05:16:12 24° WNW 05:20:20 10° WSW visible
